Back to catalog

STARLINK-35306

AliveCommunicationsVLEO
NORAD 67361·PAYLOAD·🇺🇸 United States

Launched Jan 9, 2026 from Cape Canaveral Space Force Station

Loading…

Next Passes (next 24 hours)

TLE

FreshSource: CelesTrak SupGP

Epoch: Sep 14, 2026, 16:09 UTC

1 67361C 26003AD  26257.67340278 -.00025388  00000+0 -91966-3 0  2571
2 67361  42.9995 239.7105 0001407 268.7724 223.5946 15.27587381    17

Track STARLINK-35306 in real time with AllMySat

Download on the App Store